Terminal Aerodrome Forecast
Issued by NWS Austin/San Antonio, TX

Home | Current Version | Previous Version | Text Only | Print | Product List | Glossary On
Versions: 1 2 3 4 5 6 7 8 9 10 11 12 13 14 15 16 17 18 19 20
000
FTUS44 KEWX 202326
TAFDRT
TAF
KDRT 202326Z 2100/2124 14011G21KT P6SM SCT090
     FM210200 11010KT P6SM FEW090
     FM211200 12010KT P6SM BKN018
     FM211600 14012G22KT P6SM SCT070=

USA.gov is the U.S. government's official web portal to all federal, state and local government web resources and services.